Previsão horária em Allenjoie

Hoje, 25 Junho, Sexta-feira

Tempo Temperatura Precipitação Vento Pressão Humidade
00:00 +14°C° 0 mm 1 m/s 733 mmHg 97%
01:00 +14°C° 0.5 mm 1 m/s 733 mmHg 97%
02:00 +14°C° 0.5 mm 2 m/s 733 mmHg 98%
03:00 +14°C° 0.5 mm 2 m/s 733 mmHg 98%
04:00 +14°C° 0.1 mm 2 m/s 733 mmHg 98%
05:00 +15°C° 0.1 mm 2 m/s 733 mmHg 97%
06:00 +15°C° 0 mm 2 m/s 733 mmHg 97%
07:00 +15°C° 0.2 mm 2 m/s 733 mmHg 93%
08:00 +16°C° 0.2 mm 2 m/s 733 mmHg 90%
09:00 +16°C° 0.2 mm 2 m/s 733 mmHg 87%
10:00 +17°C° 0.2 mm 2 m/s 733 mmHg 81%
11:00 +18°C° 0.2 mm 2 m/s 733 mmHg 75%
12:00 +19°C° 0.2 mm 2 m/s 733 mmHg 69%
13:00 +20°C° 0.1 mm 2 m/s 733 mmHg 68%
14:00 +20°C° 0.1 mm 2 m/s 733 mmHg 66%
15:00 +20°C° 0.1 mm 2 m/s 732 mmHg 65%
16:00 +20°C° 0.1 mm 2 m/s 732 mmHg 70%
17:00 +19°C° 0.1 mm 2 m/s 732 mmHg 75%
18:00 +20°C° 0.1 mm 1 m/s 732 mmHg 80%
19:00 +18°C° 0 mm 1 m/s 732 mmHg 83%
20:00 +15°C° 0 mm 1 m/s 732 mmHg 87%
21:00 +14°C° 0 mm 1 m/s 732 mmHg 91%
22:00 +13°C° 0 mm 1 m/s 732 mmHg 91%
23:00 +13°C° 0 mm 1 m/s 732 mmHg 92%

Amanhã, 26 Junho, Sábado

Tempo Temperatura Precipitação Vento Pressão Humidade
00:00 +13°C° 0 mm 1 m/s 732 mmHg 92%
01:00 +12°C° 0 mm 1 m/s 732 mmHg 92%
02:00 +12°C° 0 mm 1 m/s 732 mmHg 92%
03:00 +12°C° 0 mm 1 m/s 732 mmHg 93%
04:00 +13°C° 0 mm 1 m/s 732 mmHg 90%
05:00 +13°C° 0 mm 0 m/s 732 mmHg 87%
06:00 +15°C° 0 mm 0 m/s 732 mmHg 85%
07:00 +18°C° 0 mm 1 m/s 732 mmHg 78%
08:00 +20°C° 0 mm 1 m/s 732 mmHg 71%
09:00 +21°C° 0 mm 2 m/s 732 mmHg 64%
10:00 +23°C° 0 mm 2 m/s 732 mmHg 61%
11:00 +24°C° 0 mm 2 m/s 732 mmHg 59%
12:00 +25°C° 0 mm 2 m/s 731 mmHg 56%
13:00 +25°C° 0 mm 2 m/s 731 mmHg 57%
14:00 +25°C° 0 mm 2 m/s 731 mmHg 57%
15:00 +25°C° 0 mm 2 m/s 730 mmHg 57%
16:00 +24°C° 0 mm 1 m/s 730 mmHg 65%
17:00 +23°C° 0 mm 1 m/s 730 mmHg 73%
18:00 +23°C° 0 mm 1 m/s 730 mmHg 81%
19:00 +21°C° 0 mm 1 m/s 730 mmHg 84%
20:00 +20°C° 0 mm 1 m/s 730 mmHg 87%
21:00 +18°C° 0 mm 1 m/s 730 mmHg 90%
22:00 +18°C° 0 mm 1 m/s 730 mmHg 90%
23:00 +16°C° 0 mm 1 m/s 730 mmHg 89%

Depois de amanhã, 27 Junho, Domingo

Tempo Temperatura Precipitação Vento Pressão Humidade
00:00 +16°C° 0 mm 1 m/s 730 mmHg 89%
01:00 +16°C° 0 mm 1 m/s 730 mmHg 89%
02:00 +16°C° 0 mm 1 m/s 729 mmHg 89%
03:00 +16°C° 0 mm 2 m/s 729 mmHg 89%
04:00 +18°C° 0 mm 1 m/s 729 mmHg 87%
05:00 +19°C° 0 mm 1 m/s 729 mmHg 84%
06:00 +20°C° 0 mm 1 m/s 729 mmHg 82%
07:00 +22°C° 0 mm 1 m/s 730 mmHg 76%
08:00 +23°C° 0 mm 1 m/s 730 mmHg 69%
09:00 +25°C° 0 mm 1 m/s 730 mmHg 63%
10:00 +26°C° 0 mm 1 m/s 729 mmHg 62%
11:00 +26°C° 0 mm 1 m/s 729 mmHg 60%
12:00 +27°C° 0 mm 1 m/s 729 mmHg 59%
13:00 +27°C° 0 mm 1 m/s 729 mmHg 60%
14:00 +27°C° 0 mm 1 m/s 729 mmHg 61%
15:00 +27°C° 0 mm 1 m/s 729 mmHg 63%
16:00 +26°C° 0.1 mm 1 m/s 729 mmHg 71%
17:00 +25°C° 0.1 mm 1 m/s 728 mmHg 79%
18:00 +24°C° 0.1 mm 2 m/s 728 mmHg 87%
19:00 +23°C° 0.1 mm 1 m/s 728 mmHg 88%
20:00 +22°C° 0.1 mm 1 m/s 728 mmHg 90%
21:00 +20°C° 0.1 mm 1 m/s 729 mmHg 91%
22:00 +20°C° 0.1 mm 1 m/s 728 mmHg 91%
23:00 +20°C° 0.1 mm 1 m/s 728 mmHg 91%

28 Junho, Segunda-feira

Tempo Temperatura Precipitação Vento Pressão Humidade
00:00 +19°C° 0.1 mm 1 m/s 728 mmHg 91%
01:00 +19°C° 0.4 mm 1 m/s 728 mmHg 92%
02:00 +19°C° 0.4 mm 1 m/s 728 mmHg 93%
03:00 +18°C° 0.4 mm 1 m/s 729 mmHg 94%
04:00 +18°C° 0 mm 2 m/s 729 mmHg 94%
05:00 +18°C° 0 mm 2 m/s 729 mmHg 93%
06:00 +19°C° 0 mm 2 m/s 730 mmHg 93%
07:00 +20°C° 0.1 mm 2 m/s 730 mmHg 87%
08:00 +22°C° 0.1 mm 1 m/s 729 mmHg 81%
09:00 +24°C° 0.1 mm 1 m/s 729 mmHg 75%
10:00 +25°C° 0.1 mm 1 m/s 729 mmHg 72%
11:00 +26°C° 0.1 mm 2 m/s 729 mmHg 69%
12:00 +26°C° 0.1 mm 2 m/s 729 mmHg 66%
13:00 +26°C° 0.9 mm 3 m/s 729 mmHg 72%
14:00 +25°C° 0.9 mm 3 m/s 729 mmHg 78%
15:00 +23°C° 0.9 mm 4 m/s 729 mmHg 84%
16:00 +21°C° 4.8 mm 3 m/s 729 mmHg 87%
17:00 +20°C° 4.8 mm 2 m/s 729 mmHg 90%
18:00 +19°C° 4.8 mm 1 m/s 729 mmHg 94%
19:00 +19°C° 0.3 mm 1 m/s 729 mmHg 94%
20:00 +18°C° 0.3 mm 1 m/s 729 mmHg 95%
21:00 +16°C° 0.3 mm 1 m/s 730 mmHg 96%
22:00 +16°C° 0.3 mm 1 m/s 730 mmHg 96%
23:00 +16°C° 0.3 mm 0 m/s 729 mmHg 96%

29 Junho, Terça-feira

Tempo Temperatura Precipitação Vento Pressão Humidade
00:00 +16°C° 0.3 mm 0 m/s 729 mmHg 96%
01:00 +16°C° 0.5 mm 0 m/s 729 mmHg 97%
02:00 +16°C° 0.5 mm 0 m/s 729 mmHg 97%
03:00 +16°C° 0.5 mm 0 m/s 728 mmHg 97%
04:00 +18°C° 0.4 mm 1 m/s 728 mmHg 97%
05:00 +18°C° 0.4 mm 1 m/s 728 mmHg 97%
06:00 +18°C° 0.4 mm 1 m/s 728 mmHg 97%
07:00 +18°C° 2.8 mm 1 m/s 728 mmHg 97%
08:00 +16°C° 2.8 mm 2 m/s 728 mmHg 97%
09:00 +16°C° 2.8 mm 2 m/s 729 mmHg 97%
10:00 +17°C° 1.8 mm 2 m/s 729 mmHg 94%
11:00 +18°C° 1.8 mm 2 m/s 729 mmHg 91%
12:00 +18°C° 1.8 mm 2 m/s 729 mmHg 88%
13:00 +19°C° 0.3 mm 3 m/s 729 mmHg 83%
14:00 +19°C° 0.3 mm 4 m/s 729 mmHg 78%
15:00 +19°C° 0.3 mm 4 m/s 729 mmHg 74%
16:00 +18°C° 0.2 mm 4 m/s 729 mmHg 79%
17:00 +17°C° 0.2 mm 3 m/s 729 mmHg 84%
18:00 +16°C° 0.2 mm 2 m/s 729 mmHg 89%
19:00 +15°C° 0.1 mm 2 m/s 730 mmHg 91%
20:00 +14°C° 0.1 mm 2 m/s 730 mmHg 92%
21:00 +13°C° 0.1 mm 1 m/s 730 mmHg 94%
22:00 +13°C° 0.1 mm 1 m/s 730 mmHg 94%
23:00 +13°C° 0.1 mm 2 m/s 730 mmHg 93%

30 Junho, Quarta-feira

Tempo Temperatura Precipitação Vento Pressão Humidade
00:00 +13°C° 0.1 mm 2 m/s 730 mmHg 93%
01:00 +12°C° 0 mm 2 m/s 729 mmHg 94%
02:00 +12°C° 0 mm 2 m/s 729 mmHg 95%
03:00 +10°C° 0 mm 2 m/s 729 mmHg 95%
04:00 +12°C° 0.2 mm 1 m/s 729 mmHg 95%
05:00 +12°C° 0.2 mm 1 m/s 729 mmHg 95%
06:00 +13°C° 0.2 mm 1 m/s 729 mmHg 94%
07:00 +14°C° 0.4 mm 1 m/s 729 mmHg 93%
08:00 +14°C° 0.4 mm 2 m/s 728 mmHg 92%
09:00 +15°C° 0.4 mm 2 m/s 728 mmHg 91%
10:00 +15°C° 0.9 mm 2 m/s 728 mmHg 92%
11:00 +14°C° 0.9 mm 3 m/s 728 mmHg 94%
12:00 +14°C° 0.9 mm 3 m/s 728 mmHg 95%
13:00 +13°C° 0.9 mm 3 m/s 729 mmHg 95%
14:00 +13°C° 0.9 mm 4 m/s 729 mmHg 96%
15:00 +13°C° 0.9 mm 4 m/s 729 mmHg 96%
16:00 +13°C° 0.5 mm 4 m/s 729 mmHg 96%
17:00 +12°C° 0.5 mm 4 m/s 730 mmHg 96%
18:00 +12°C° 0.5 mm 4 m/s 730 mmHg 96%
19:00 +12°C° 0.3 mm 3 m/s 730 mmHg 96%
20:00 +12°C° 0.3 mm 3 m/s 730 mmHg 97%
21:00 +12°C° 0.3 mm 3 m/s 731 mmHg 97%
22:00 +12°C° 0.3 mm 3 m/s 731 mmHg 97%
23:00 +12°C° 0.3 mm 3 m/s 731 mmHg 97%
Mostrar mais